Location: Sungai Laei
(2.6000°N, 113.7167°E)
Time: 11:17:21
(UTC+00:00)

Cosmos 1953 Rocket - Pass Details

Date: 22 May 2022
Orbit: 603 x 635 km, 82.5° (Epoch: 06 July)

Event Time Altitude Azimuth Distance (km) Brightness Sun altitude
Rises 21:25:46 0° 181° (S) 2,859 6.7 -12.2°
Reaches altitude 10° 21:27:58 10° 180° (S) 1,957 5.9 -11.7°
Maximum altitude 21:32:17 78° 95° (E) 627 3.7 -10.7°
Drops below altitude 10° 21:36:39 10° 7° (N) 1,968 6.5 -9.6°
Sets 21:38:52 0° 6° (N) 2,876 7.4 -9.1°
